Ketchikan, AK

12:18 AM AKST on December 16, 2018 (GMT -0900)
Ketchikan International

Weather History for PAKT - September, 2018

Change the Weather History Date:

Sunday, September 30, 2018

  Actual Average Record
Temperature  
Mean Temperature 52 °F -  
Max Temperature 64 °F 55 °F 69 °F (2008)
Min Temperature 41 °F 44 °F 33 °F (1996)
Degree Days  
Heating Degree Days 12    
Growing Degree Days 2 (Base 50)    
Moisture  
Dew Point 29 °F    
Average Humidity 51    
Maximum Humidity 79    
Minimum Humidity 18    
Precipitation  
Precipitation 0.00 in - - ()
Sea Level Pressure  
Sea Level Pressure 29.91 in    
Wind  
Wind Speed 5 mph (WNW)    
Max Wind Speed 9 mph    
Max Gust Speed 16 mph    
Visibility 10 miles    
Events      
Averages and records for this station are not official NWS values.
T = Trace of Precipitation, MM = Missing Value Source: NWS Daily Summary

Daily Weather History Graph

Daily Weather History Graph

Search for Another Location

Airport or City:

Astronomy

Sep. 30, 2018 Rise Set
Actual Time 6:47 AM AKDT 6:24 PM AKDT
Civil Twilight 6:11 AM AKDT 7:00 PM AKDT
Nautical Twilight 5:28 AM AKDT 7:43 PM AKDT
Astronomical Twilight 4:44 AM AKDT 8:27 PM AKDT
Moon 9:31 PM AKDT (9/30) 1:18 PM AKDT (9/30)
Length of Visible Light 12h 49m
Length of Day
11h 36m
Waning Gibbous, 67% of the Moon is Illuminated
Sep 30
Waning Gibbous
Oct 2
Last Quarter
Oct 8
New
Oct 16
First Quarter
Oct 24
Full

Hourly Weather History & Observations

Time (AKDT) Temp. Windchill Dew Point Humidity Pressure Visibility Wind Dir Wind Speed Gust Speed Precip Events Conditions
12:53 AM 46.0 °F 43.9 °F 34.0 °F 63% 29.96 in 10.0 mi West 4.6 mph - N/A   Clear
1:53 AM 43.0 °F 41.3 °F 32.0 °F 65% 29.96 in 10.0 mi West 3.5 mph - N/A   Clear
2:53 AM 42.1 °F 39.2 °F 36.0 °F 79% 29.96 in 10.0 mi NW 4.6 mph - N/A   Clear
3:53 AM 44.1 °F 40.8 °F 35.1 °F 71% 29.95 in 10.0 mi West 5.8 mph - N/A   Clear
4:53 AM 43.0 °F - 33.1 °F 68% 29.94 in 10.0 mi Calm Calm - N/A   Clear
5:53 AM 41.0 °F 39.0 °F 32.0 °F 70% 29.94 in 10.0 mi West 3.5 mph - N/A   Clear
6:03 AM 41.0 °F 38.0 °F 30.9 °F 67% 29.93 in 10.0 mi WNW 4.6 mph - N/A   Clear
6:53 AM 41.0 °F 38.0 °F 32.0 °F 70% 29.94 in 10.0 mi WNW 4.6 mph - N/A   Clear
7:53 AM 44.1 °F 40.8 °F 33.1 °F 65% 29.94 in 10.0 mi WNW 5.8 mph - N/A   Clear
8:53 AM 48.9 °F - 37.0 °F 64% 29.93 in 10.0 mi Calm Calm - N/A   Clear
9:53 AM 57.0 °F - 25.0 °F 29% 29.93 in 10.0 mi NNW 8.1 mph - N/A   Clear
10:53 AM 59.0 °F - 21.9 °F 24% 29.92 in 10.0 mi NNW 8.1 mph - N/A   Clear
11:53 AM 61.0 °F - 21.9 °F 22% 29.91 in 10.0 mi NNW 9.2 mph - N/A   Clear
12:53 PM 62.1 °F - 21.0 °F 21% 29.90 in 10.0 mi Variable 6.9 mph - N/A   Clear
1:53 PM 64.4 °F - 19.4 °F 18% 29.88 in 10.0 mi North 8.1 mph 16.1 mph N/A   Clear
2:53 PM 64.9 °F - 21.0 °F 19% 29.87 in 10.0 mi North 8.1 mph - N/A   Clear
3:53 PM 62.6 °F - 24.8 °F 24% 29.86 in 10.0 mi NW 6.9 mph - N/A   Clear
4:53 PM 60.8 °F - 26.6 °F 27% 29.86 in 10.0 mi West 8.1 mph - N/A   Clear
5:53 PM 53.6 °F - 30.2 °F 41% 29.86 in 10.0 mi Calm Calm - N/A   Clear
6:53 PM 48.0 °F - 28.0 °F 46% 29.86 in 10.0 mi SW 3.5 mph - N/A   Clear
7:53 PM 44.6 °F 43.1 °F 30.2 °F 57% 29.87 in 10.0 mi WSW 3.5 mph - N/A   Clear
8:53 PM 42.1 °F - 32.0 °F 67% 29.88 in 10.0 mi Calm Calm - N/A   Clear
9:53 PM 42.1 °F 40.2 °F 33.1 °F 70% 29.88 in 10.0 mi WNW 3.5 mph - N/A   Clear
10:53 PM 45.0 °F 41.8 °F 34.0 °F 65% 29.88 in 10.0 mi WNW 5.8 mph - N/A   Clear
11:53 PM 44.1 °F 40.1 °F 32.0 °F 63% 29.88 in 10.0 mi WNW 6.9 mph - N/A   Clear